UK-DMC 2

Last updated on Sat Sep 05 2026 00:02:50 GMT+0000 (Coordinated Universal Time)

1 35683U 09041C 26247.67274505 .00000632 00000+0 98663-4 0 9992 2 35683 97.8945 20.7486 0001452 67.2515 292.8848 14.76130711918295
UTC large
Height (km)
Speed (km/s)
/
Latitude / Longitude
Inclination (degrees)
Orbital Period (minutes)
Azimuth
Elevation
Range (km)
Doppler Factor

Next 0 passes for location: London (51.5072 / 0.1276)

No passes found over London.
UK-DMC 2